Total_Precipitation_Accumulation
0.00 0.00 0.00 0.01 0.00 0.06 0.39 0.71 1.25 1.37 2.18 3.35 2.92 2.21 2.57 1.25 0.88 1.09 0.53 0.17 0.07 0.01 0.01 0.00 0.00 0.00 0.00 0.00 0.00 0.00 0.01 0.08 0.13 0.14 0.07 0.09 0.17 0.07 0.13 0.26 0.36 0.48 0.41 0.42
0.00 0.00 0.00 0.00 0.00 0.01 0.11 0.37 1.39 1.61 1.99 1.92 2.71 2.03 2.02 1.93 0.99 0.74 0.75 0.27 0.10 0.02 0.01 0.00 0.00 0.00 0.01 0.00 0.00 0.00 0.06 0.14 0.13 0.07 0.13 0.14 0.11 0.10 0.17 0.35 0.43 0.22 0.32 0.40
0.00 0.00 0.00 0.00 0.00 0.06 0.13 0.14 0.88 1.93 1.82 1.86 1.68 2.24 1.73 1.85 1.75 0.93 0.92 0.51 0.29 0.04 0.04 0.00 0.00 0.00 0.02 0.01 0.00 0.00 0.05 0.15 0.15 0.17 0.16 0.46 0.53 0.61 0.71 0.48 0.27 0.15 0.22 0.24
0.00 0.00 0.00 0.00 0.00 0.03 0.16 0.16 0.41 1.18 1.43 1.45 1.35 1.42 1.53 1.24 1.60 1.92 1.26 0.43 0.22 0.09 0.06 0.04 0.00 0.01 0.01 0.01 0.00 0.00 0.02 0.17 0.14 0.13 0.20 0.48 0.59 0.60 0.49 0.39 0.54 0.34 0.13 0.14
0.00 0.00 0.00 0.00 0.00 0.02 0.04 0.07 0.25 0.66 0.97 0.92 0.80 0.76 0.72 1.12 1.22 1.71 1.32 0.39 0.28 0.21 0.09 0.08 0.02 0.03 0.04 0.00 0.00 0.00 0.00 0.15 0.14 0.22 0.53 0.30 0.19 0.42 0.43 0.41 0.98 0.50 0.28 0.12
0.00 0.00 0.00 0.00 0.00 0.01 0.02 0.06 0.09 0.31 0.96 0.58 0.25 0.35 0.35 0.70 0.81 1.06 0.84 0.62 0.36 0.13 0.14 0.13 0.06 0.05 0.04 0.01 0.00 0.00 0.00 0.04 0.11 0.18 0.18 0.31 0.43 0.60 0.99 1.13 0.93 0.39 0.22 0.16
0.00 0.00 0.00 0.00 0.02 0.04 0.01 0.02 0.16 0.23 0.49 0.43 0.12 0.16 0.30 0.13 0.65 0.76 0.64 0.56 0.40 0.25 0.23 0.13 0.09 0.09 0.09 0.02 0.00 0.00 0.00 0.01 0.04 0.11 0.08 0.17 0.28 0.48 0.79 0.92 0.47 0.44 0.57 0.59
0.00 0.00 0.00 0.00 0.00 0.01 0.01 0.01 0.02 0.05 0.11 0.23 0.20 0.36 0.14 0.05 0.15 0.25 0.26 0.22 0.53 0.36 0.34 0.38 0.25 0.23 0.30 0.16 0.02 0.06 0.02 0.02 0.01 0.08 0.07 0.12 0.21 0.20 0.31 0.44 0.69 0.67 0.73 0.80
0.00 0.00 0.00 0.00 0.00 0.00 0.02 0.01 0.03 0.04 0.07 0.12 0.29 0.45 0.15 0.14 0.22 0.08 0.14 0.19 0.34 0.63 0.73 0.51 0.26 0.41 0.81 0.52 0.27 0.07 0.08 0.07 0.06 0.04 0.07 0.16 0.20 0.15 0.15 0.41 0.59 0.51 0.66 0.83
0.00 0.00 0.00 0.00 0.00 0.00 0.00 0.06 0.07 0.06 0.08 0.08 0.26 0.77 0.43 0.15 0.12 0.15 0.14 0.17 0.16 0.64 1.56 1.74 1.26 0.65 0.82 1.27 1.11 0.72 0.23 0.15 0.22 0.08 0.12 0.25 0.16 0.16 0.22 0.28 0.44 0.57 0.73 1.87
0.00 0.01 0.00 0.00 0.00 0.00 0.00 0.02 0.05 0.04 0.03 0.03 0.14 0.29 0.27 0.26 0.13 0.08 0.11 0.21 0.20 0.39 1.33 2.63 2.62 2.17 1.20 1.54 1.05 1.76 0.98 0.76 0.69 0.57 0.50 0.62 0.33 0.16 0.17 0.23 0.36 0.52 0.63 0.76
0.03 0.05 0.01 0.00 0.00 0.00 0.00 0.00 0.00 0.02 0.01 0.02 0.03 0.20 0.26 0.38 0.19 0.10 0.27 0.30 0.21 0.44 0.78 1.45 2.12 2.31 1.89 1.63 1.15 1.35 2.07 1.50 1.29 1.20 1.36 0.94 0.94 0.77 0.46 0.32 0.31 0.43 0.53 0.57
0.11 0.09 0.03 0.00 0.00 0.00 0.00 0.00 0.00 0.00 0.02 0.06 0.05 0.06 0.09 0.22 0.21 0.05 0.05 0.22 0.16 0.33 0.40 0.62 1.15 1.77 2.10 1.91 1.47 1.52 2.03 3.02 1.85 1.84 1.79 1.49 1.10 1.01 0.96 0.77 0.80 0.51 0.41 0.52
0.26 0.11 0.03 0.01 0.01 0.01 0.03 0.02 0.00 0.00 0.00 0.00 0.01 0.01 0.04 0.02 0.01 0.13 0.24 0.25 0.26 0.46 0.67 0.79 0.77 1.11 1.74 1.92 1.54 1.52 1.96 2.14 2.53 2.13 2.11 1.53 1.18 0.93 0.85 0.74 0.73 0.57 0.54 0.56
0.18 0.08 0.01 0.00 0.01 0.01 0.03 0.12 0.15 0.03 0.00 0.01 0.03 0.02 0.05 0.20 0.07 0.11 0.28 0.31 0.35 0.39 0.46 0.65 0.84 0.97 1.53 2.08 1.86 1.35 1.18 1.25 1.30 1.34 1.68 2.06 2.10 1.42 1.27 1.07 1.14 0.89 0.62 0.53
0.09 0.07 0.04 0.02 0.01 0.00 0.01 0.01 0.01 0.06 0.03 0.01 0.01 0.05 0.29 0.72 0.91 0.29 0.09 0.04 0.10 0.18 0.23 0.36 0.78 0.74 1.06 1.32 2.42 2.16 1.46 1.40 1.05 1.05 1.30 1.42 1.97 1.87 1.46 1.32 1.12 0.95 0.79 0.69
0.16 0.20 0.18 0.05 0.02 0.03 0.06 0.01 0.00 0.02 0.03 0.04 0.05 0.03 0.17 0.61 1.01 0.45 0.17 0.24 0.30 0.24 0.35 0.46 0.68 0.70 0.98 1.08 1.23 1.51 1.27 1.22 1.16 1.27 1.03 1.00 1.17 0.86 0.81 0.79 0.95 1.02 0.97 0.90
0.13 0.39 0.41 0.29 0.20 0.37 0.16 0.06 0.04 0.03 0.05 0.04 0.05 0.12 0.38 0.38 0.23 0.14 0.13 0.26 0.52 0.64 1.00 1.30 0.70 0.86 1.11 1.39 1.47 1.27 1.42 1.22 0.90 1.13 1.10 0.79 0.86 0.94 0.83 0.62 0.58 0.63 0.61 0.69
0.08 0.33 0.48 0.46 0.50 0.34 0.16 0.09 0.05 0.04 0.08 0.11 0.18 0.33 0.42 0.89 0.57 0.49 0.44 0.41 0.38 0.51 0.89 1.02 0.68 0.75 0.86 1.73 2.03 2.27 1.86 2.10 1.94 1.13 0.98 0.78 0.54 0.47 0.63 0.70 0.83 0.89 0.74 0.65
0.20 0.32 0.67 0.57 0.92 0.75 0.36 0.25 0.18 0.16 0.24 0.13 0.18 0.41 0.51 0.52 0.64 0.47 0.33 0.34 0.28 0.31 0.50 0.55 0.29 0.38 0.46 0.90 1.22 1.79 2.33 1.79 1.83 1.70 1.21 1.11 1.20 0.90 0.80 1.27 1.50 1.55 1.63 1.28
0.42 0.59 0.62 0.53 0.84 0.71 0.33 0.24 0.28 0.43 0.25 0.13 0.16 0.64 1.04 1.70 1.28 0.75 0.47 0.29 0.09 0.10 0.18 0.28 0.16 0.39 0.35 0.52 0.73 0.98 1.06 1.11 1.50 1.76 1.96 1.46 1.28 1.40 1.30 1.39 1.65 1.93 1.92 1.76
0.78 1.02 1.11 0.70 1.20 1.14 0.31 0.48 0.61 0.42 0.19 0.75 0.88 1.31 0.99 0.65 0.77 0.55 0.27 0.16 0.03 0.04 0.08 0.09 0.11 0.27 0.28 0.31 0.54 0.77 0.99 0.97 1.05 1.74 1.73 2.19 1.82 1.70 1.67 1.69 1.73 1.76 1.82 1.72
0.94 1.01 1.21 0.86 1.23 1.02 0.66 0.79 0.63 0.43 0.52 0.47 0.63 0.79 1.02 0.40 0.32 0.25 0.17 0.06 0.02 0.01 0.01 0.03 0.06 0.15 0.17 0.19 0.28 0.39 0.71 0.98 0.82 0.88 1.05 1.48 2.38 1.57 1.24 1.15 1.02 0.93 0.90 0.78
0.81 0.94 0.89 0.75 0.86 1.01 0.78 0.94 0.88 0.76 0.78 0.87 0.29 0.14 0.15 0.16 0.21 0.15 0.08 0.06 0.04 0.03 0.02 0.02 0.04 0.03 0.07 0.12 0.17 0.24 0.21 0.32 0.50 0.60 0.61 0.63 0.91 0.64 0.50 0.56 0.46 0.51 0.70 0.83
1.07 0.96 0.88 0.86 0.92 1.11 0.97 1.38 1.14 0.86 0.67 0.54 0.45 0.33 0.24 0.28 0.25 0.18 0.14 0.13 0.13 0.16 0.13 0.10 0.13 0.11 0.09 0.05 0.04 0.04 0.04 0.08 0.13 0.24 0.35 0.43 0.49 0.47 0.35 0.49 0.49 0.60 0.83 0.91
1.33 1.37 1.31 1.07 0.94 1.35 1.31 1.36 1.19 1.14 1.13 1.22 1.04 0.79 0.76 0.78 0.87 0.71 0.56 0.52 0.48 0.59 0.67 0.65 0.53 0.48 0.56 0.54 0.38 0.26 0.21 0.21 0.24 0.29 0.28 0.30 0.33 0.48 0.53 0.55 0.56 0.82 1.00 0.95